Tracking 28126 objects as of 1-Oct-2023
HD Live streaming from Space Station
objects crossing your sky now

SAUDISAT 5A

Track SAUDISAT 5A now!
10-day predictions


NORAD ID: 43831
Int'l Code: 2018-102A
Perigee: 526.0 km
Apogee: 544.1 km
Inclination: 97.4 °
Period: 95.2 minutes
Semi major axis: 6906 km
RCS: Unknown
Launch date: December 7, 2018
Source: Saudi Arabia (SAUD)
Launch site: Jiuquan Satellite Launch Center, China (JSC)
Your satellite tracking list
Your tracking list is empty




NASA's NSSDC Master Catalog

Two Line Element Set (TLE):
1 43831U 18102A   23274.48376186  .00006595  00000-0  37943-3 0  9996
2 43831  97.4441 341.4497 0013078   4.8220 355.3134 15.12714991265295
Source of the keplerian elements: AFSPC